Time,TemperatureF,DewpointF,PressureIn,WindDirection,WindDirectionDegrees,WindSpeedMPH,WindSpeedGustMPH,Humidity,HourlyPrecipIn,Conditions,Clouds,dailyrainin,SolarRadiationWatts/m^2,SoftwareType,DateUTC
2013-01-06 00:03:00,47.1,43.0,30.29,NW,320,0.0,2.0,84,0.00,,,0.00,0,weatherlink.com 1.10,2013-01-06 05:03:00,
2013-01-06 00:18:00,47.4,43.0,30.28,NW,320,0.0,1.0,83,0.00,,,0.00,0,weatherlink.com 1.10,2013-01-06 05:18:00,
2013-01-06 00:33:00,47.5,43.0,30.27,NW,321,0.0,2.0,83,0.00,,,0.00,0,weatherlink.com 1.10,2013-01-06 05:33:00,
2013-01-06 00:48:00,47.5,42.0,30.26,NNW,330,2.0,2.0,82,0.00,,,0.00,0,weatherlink.com 1.10,2013-01-06 05:48:00,
2013-01-06 01:03:00,47.7,43.0,30.26,NNW,330,0.0,1.0,83,0.00,,,0.00,0,weatherlink.com 1.10,2013-01-06 06:03:00,
2013-01-06 01:18:00,47.8,43.0,30.25,NNW,345,0.0,3.0,83,0.00,,,0.00,0,weatherlink.com 1.10,2013-01-06 06:18:00,
2013-01-06 01:33:00,48.0,43.0,30.25,NNW,345,0.0,2.0,83,0.00,,,0.00,0,weatherlink.com 1.10,2013-01-06 06:33:00,
2013-01-06 01:48:00,48.3,43.0,30.24,NNW,337,0.0,2.0,82,0.00,,,0.00,0,weatherlink.com 1.10,2013-01-06 06:48:00,
2013-01-06 02:03:00,48.2,43.0,30.24,NNW,336,0.0,1.0,82,0.00,,,0.00,0,weatherlink.com 1.10,2013-01-06 07:03:00,
2013-01-06 02:18:00,48.7,42.0,30.25,North,355,1.0,2.0,79,0.00,,,0.00,0,weatherlink.com 1.10,2013-01-06 07:18:00,
2013-01-06 02:33:00,48.5,42.0,30.25,North,355,0.0,3.0,78,0.00,,,0.00,0,weatherlink.com 1.10,2013-01-06 07:33:00,
2013-01-06 02:48:00,48.4,42.0,30.24,North,355,0.0,2.0,78,0.00,,,0.00,0,weatherlink.com 1.10,2013-01-06 07:48:00,
2013-01-06 03:03:00,48.3,42.0,30.23,North,355,0.0,1.0,80,0.00,,,0.00,0,weatherlink.com 1.10,2013-01-06 08:03:00,
2013-01-06 03:18:00,48.0,42.0,30.22,North,355,0.0,1.0,81,0.00,,,0.00,0,weatherlink.com 1.10,2013-01-06 08:18:00,
2013-01-06 03:33:00,47.8,43.0,30.22,North,355,0.0,0.0,83,0.00,,,0.00,0,weatherlink.com 1.10,2013-01-06 08:33:00,
2013-01-06 03:48:00,47.9,42.0,30.21,North,355,0.0,1.0,81,0.00,,,0.00,0,weatherlink.com 1.10,2013-01-06 08:48:00,
2013-01-06 04:03:00,48.2,43.0,30.21,North,355,0.0,1.0,81,0.00,,,0.00,0,weatherlink.com 1.10,2013-01-06 09:03:00,
2013-01-06 04:18:00,48.4,43.0,30.20,North,355,0.0,0.0,82,0.00,,,0.00,0,weatherlink.com 1.10,2013-01-06 09:18:00,
2013-01-06 04:33:00,48.4,43.0,30.21,North,355,0.0,1.0,82,0.00,,,0.00,0,weatherlink.com 1.10,2013-01-06 09:33:00,
2013-01-06 04:48:00,48.3,44.0,30.20,North,355,0.0,1.0,84,0.00,,,0.00,0,weatherlink.com 1.10,2013-01-06 09:48:00,
2013-01-06 05:03:00,48.1,44.0,30.19,North,355,0.0,0.0,84,0.00,,,0.00,0,weatherlink.com 1.10,2013-01-06 10:03:00,
2013-01-06 05:19:00,48.1,44.0,30.18,North,355,0.0,0.0,85,0.00,,,0.00,0,weatherlink.com 1.10,2013-01-06 10:19:00,
2013-01-06 05:34:00,48.0,43.0,30.19,North,355,0.0,1.0,84,0.00,,,0.00,0,weatherlink.com 1.10,2013-01-06 10:34:00,
2013-01-06 05:49:00,48.5,44.0,30.19,North,355,0.0,1.0,84,0.00,,,0.00,0,weatherlink.com 1.10,2013-01-06 10:49:00,
2013-01-06 06:04:00,48.8,45.0,30.20,North,355,1.0,1.0,85,0.00,,,0.00,0,weatherlink.com 1.10,2013-01-06 11:04:00,
2013-01-06 06:19:00,48.7,44.0,30.19,North,355,0.0,1.0,84,0.00,,,0.00,0,weatherlink.com 1.10,2013-01-06 11:19:00,
2013-01-06 06:34:00,48.7,44.0,30.19,North,355,0.0,0.0,85,0.00,,,0.00,0,weatherlink.com 1.10,2013-01-06 11:34:00,
2013-01-06 06:49:00,48.8,45.0,30.20,North,355,0.0,0.0,85,0.00,,,0.00,0,weatherlink.com 1.10,2013-01-06 11:49:00,
2013-01-06 07:04:00,48.9,45.0,30.20,North,359,2.0,5.0,85,0.00,,,0.00,0,weatherlink.com 1.10,2013-01-06 12:04:00,
2013-01-06 07:19:00,48.8,45.0,30.21,North,6,0.0,2.0,85,0.00,,,0.00,0,weatherlink.com 1.10,2013-01-06 12:19:00,
2013-01-06 07:34:00,48.9,45.0,30.21,North,6,0.0,1.0,85,0.00,,,0.00,0,weatherlink.com 1.10,2013-01-06 12:34:00,
2013-01-06 07:49:00,49.1,45.0,30.22,NNW,348,1.0,3.0,86,0.00,,,0.00,0,weatherlink.com 1.10,2013-01-06 12:49:00,
2013-01-06 08:04:00,49.2,45.0,30.20,NNW,348,0.0,1.0,86,0.00,,,0.00,9,weatherlink.com 1.10,2013-01-06 13:04:00,
2013-01-06 08:19:00,49.3,46.0,30.21,NNW,348,0.0,1.0,87,0.00,,,0.00,40,weatherlink.com 1.10,2013-01-06 13:19:00,
2013-01-06 08:34:00,49.7,46.0,30.22,North,360,0.0,3.0,87,0.00,,,0.00,51,weatherlink.com 1.10,2013-01-06 13:34:00,
2013-01-06 08:49:00,49.8,46.0,30.21,North,357,1.0,2.0,86,0.00,,,0.00,39,weatherlink.com 1.10,2013-01-06 13:49:00,
2013-01-06 09:04:00,50.1,46.0,30.23,North,352,0.0,2.0,86,0.00,,,0.00,46,weatherlink.com 1.10,2013-01-06 14:04:00,
2013-01-06 09:19:00,50.3,47.0,30.23,North,352,2.0,3.0,87,0.00,,,0.00,58,weatherlink.com 1.10,2013-01-06 14:19:00,
2013-01-06 09:34:00,50.8,48.0,30.23,North,350,0.0,1.0,89,0.00,,,0.00,98,weatherlink.com 1.10,2013-01-06 14:34:00,
2013-01-06 09:49:00,51.1,48.0,30.24,North,349,0.0,2.0,88,0.00,,,0.00,81,weatherlink.com 1.10,2013-01-06 14:49:00,
2013-01-06 10:04:00,51.3,48.0,30.23,WNW,303,0.0,2.0,88,0.00,,,0.00,113,weatherlink.com 1.10,2013-01-06 15:04:00,
2013-01-06 10:19:00,52.0,48.0,30.23,NE,40,0.0,2.0,87,0.00,,,0.00,132,weatherlink.com 1.10,2013-01-06 15:19:00,
2013-01-06 10:34:00,52.9,49.0,30.23,North,352,3.0,3.0,87,0.00,,,0.00,160,weatherlink.com 1.10,2013-01-06 15:34:00,
2013-01-06 10:49:00,53.3,49.0,30.23,NNW,330,5.0,8.0,84,0.00,,,0.00,158,weatherlink.com 1.10,2013-01-06 15:49:00,
2013-01-06 11:04:00,53.5,49.0,30.22,NNW,346,3.0,8.0,83,0.00,,,0.00,116,weatherlink.com 1.10,2013-01-06 16:04:00,
2013-01-06 11:19:00,53.5,49.0,30.21,NW,318,2.0,5.0,83,0.00,,,0.00,95,weatherlink.com 1.10,2013-01-06 16:19:00,
2013-01-06 11:34:00,53.5,48.0,30.20,NW,318,5.0,8.0,81,0.00,,,0.00,151,weatherlink.com 1.10,2013-01-06 16:34:00,
2013-01-06 11:49:00,53.5,48.0,30.20,NNW,328,3.0,7.0,81,0.00,,,0.00,67,weatherlink.com 1.10,2013-01-06 16:49:00,
2013-01-06 12:04:00,53.5,48.0,30.19,NW,308,4.0,5.0,81,0.00,,,0.00,121,weatherlink.com 1.10,2013-01-06 17:04:00,
2013-01-06 12:19:00,53.4,48.0,30.18,NNW,337,2.0,3.0,83,0.00,,,0.00,88,weatherlink.com 1.10,2013-01-06 17:19:00,
2013-01-06 12:34:00,52.6,47.0,30.16,NNW,345,0.0,4.0,81,0.00,,,0.00,142,weatherlink.com 1.10,2013-01-06 17:34:00,
2013-01-06 12:49:00,52.6,46.0,30.15,NNW,336,1.0,4.0,79,0.00,,,0.00,114,weatherlink.com 1.10,2013-01-06 17:49:00,
2013-01-06 13:04:00,52.8,46.0,30.15,NNW,341,0.0,1.0,79,0.00,,,0.00,104,weatherlink.com 1.10,2013-01-06 18:04:00,
2013-01-06 13:19:00,53.3,48.0,30.14,North,355,0.0,4.0,82,0.00,,,0.00,123,weatherlink.com 1.10,2013-01-06 18:19:00,
2013-01-06 13:34:00,53.7,49.0,30.15,NNW,336,1.0,3.0,83,0.00,,,0.00,65,weatherlink.com 1.10,2013-01-06 18:34:00,
2013-01-06 13:49:00,54.1,49.0,30.14,NW,326,4.0,5.0,83,0.00,,,0.00,158,weatherlink.com 1.10,2013-01-06 18:49:00,
2013-01-06 14:04:00,54.2,48.0,30.13,NW,316,6.0,6.0,80,0.00,,,0.00,155,weatherlink.com 1.10,2013-01-06 19:04:00,
2013-01-06 14:19:00,54.4,47.0,30.13,NW,318,4.0,7.0,75,0.00,,,0.00,97,weatherlink.com 1.10,2013-01-06 19:19:00,
2013-01-06 14:34:00,53.9,46.0,30.13,NNW,332,8.0,12.0,74,0.00,,,0.00,46,weatherlink.com 1.10,2013-01-06 19:34:00,
2013-01-06 14:49:00,52.4,46.0,30.14,NNW,341,3.0,8.0,79,0.00,,,0.00,42,weatherlink.com 1.10,2013-01-06 19:49:00,
2013-01-06 15:05:00,51.6,47.0,30.14,NNE,32,0.0,1.0,84,0.00,,,0.00,47,weatherlink.com 1.10,2013-01-06 20:05:00,
2013-01-06 15:19:00,50.9,46.0,30.14,NW,316,8.0,8.0,82,0.00,,,0.00,39,weatherlink.com 1.10,2013-01-06 20:19:00,
2013-01-06 15:35:00,49.3,45.0,30.14,NNW,332,5.0,8.0,85,0.00,,,0.00,46,weatherlink.com 1.10,2013-01-06 20:35:00,
2013-01-06 15:50:00,48.8,46.0,30.14,NW,324,5.0,8.0,89,0.00,,,0.00,14,weatherlink.com 1.10,2013-01-06 20:50:00,
2013-01-06 16:05:00,48.5,46.0,30.14,NW,322,2.0,8.0,91,0.00,,,0.00,18,weatherlink.com 1.10,2013-01-06 21:05:00,
2013-01-06 16:20:00,48.2,46.0,30.12,NNW,328,1.0,3.0,92,0.00,,,0.00,19,weatherlink.com 1.10,2013-01-06 21:20:00,
2013-01-06 16:35:00,48.4,47.0,30.13,NNW,336,0.0,1.0,93,0.00,,,0.00,19,weatherlink.com 1.10,2013-01-06 21:35:00,
2013-01-06 16:50:00,48.6,47.0,30.12,South,170,0.0,2.0,93,0.01,,,0.01,11,weatherlink.com 1.10,2013-01-06 21:50:00,
2013-01-06 17:05:00,48.8,47.0,30.12,South,170,0.0,1.0,93,0.01,,,0.01,9,weatherlink.com 1.10,2013-01-06 22:05:00,
2013-01-06 17:20:00,49.0,47.0,30.12,South,170,2.0,2.0,94,0.01,,,0.01,0,weatherlink.com 1.10,2013-01-06 22:20:00,
2013-01-06 17:36:00,49.3,48.0,30.11,South,182,4.0,5.0,94,0.01,,,0.01,0,weatherlink.com 1.10,2013-01-06 22:36:00,
2013-01-06 17:50:00,49.5,48.0,30.12,SSW,208,1.0,6.0,93,0.00,,,0.01,0,weatherlink.com 1.10,2013-01-06 22:50:00,
2013-01-06 18:05:00,49.6,48.0,30.12,SSW,203,0.0,2.0,93,0.00,,,0.01,0,weatherlink.com 1.10,2013-01-06 23:05:00,
2013-01-06 18:20:00,49.6,48.0,30.12,SSW,203,0.0,0.0,93,0.00,,,0.01,0,weatherlink.com 1.10,2013-01-06 23:20:00,
2013-01-06 18:35:00,49.7,48.0,30.12,SSW,203,0.0,0.0,93,0.00,,,0.01,0,weatherlink.com 1.10,2013-01-06 23:35:00,
2013-01-06 18:50:00,49.6,48.0,30.12,SSW,205,1.0,4.0,93,0.00,,,0.01,0,weatherlink.com 1.10,2013-01-06 23:50:00,
2013-01-06 19:05:00,49.6,48.0,30.12,WNW,293,1.0,3.0,93,0.00,,,0.01,0,weatherlink.com 1.10,2013-01-07 00:05:00,
2013-01-06 19:20:00,49.6,48.0,30.12,WNW,290,0.0,0.0,93,0.00,,,0.01,0,weatherlink.com 1.10,2013-01-07 00:20:00,
2013-01-06 19:35:00,49.4,48.0,30.12,West,265,0.0,3.0,93,0.00,,,0.01,0,weatherlink.com 1.10,2013-01-07 00:35:00,
2013-01-06 19:53:00,49.4,48.0,30.12,SW,234,0.0,2.0,93,0.00,,,0.01,0,weatherlink.com 1.10,2013-01-07 00:53:00,
2013-01-06 20:05:00,49.6,48.0,30.13,West,265,0.0,4.0,93,0.00,,,0.01,0,weatherlink.com 1.10,2013-01-07 01:05:00,
2013-01-06 20:20:00,49.7,48.0,30.13,WSW,247,0.0,0.0,93,0.00,,,0.01,0,weatherlink.com 1.10,2013-01-07 01:20:00,
2013-01-06 20:35:00,49.8,48.0,30.13,WSW,247,0.0,0.0,93,0.00,,,0.01,0,weatherlink.com 1.10,2013-01-07 01:35:00,
2013-01-06 20:50:00,49.9,48.0,30.13,WSW,246,0.0,0.0,93,0.00,,,0.01,0,weatherlink.com 1.10,2013-01-07 01:50:00,
2013-01-06 21:05:00,50.0,48.0,30.14,WNW,293,4.0,4.0,93,0.01,,,0.02,0,weatherlink.com 1.10,2013-01-07 02:05:00,
2013-01-06 21:20:00,50.1,48.0,30.14,NW,316,3.0,6.0,92,0.01,,,0.02,0,weatherlink.com 1.10,2013-01-07 02:20:00,
2013-01-06 21:35:00,50.3,48.0,30.15,NW,311,4.0,7.0,92,0.01,,,0.02,0,weatherlink.com 1.10,2013-01-07 02:35:00,
2013-01-06 21:50:00,50.4,48.0,30.15,NW,312,4.0,7.0,92,0.01,,,0.02,0,weatherlink.com 1.10,2013-01-07 02:50:00,
2013-01-06 22:05:00,50.5,48.0,30.16,NW,322,5.0,8.0,91,0.00,,,0.02,0,weatherlink.com 1.10,2013-01-07 03:05:00,
2013-01-06 22:20:00,50.5,48.0,30.15,WNW,292,3.0,6.0,91,0.00,,,0.02,0,weatherlink.com 1.10,2013-01-07 03:20:00,
2013-01-06 22:35:00,50.6,48.0,30.15,WNW,294,6.0,7.0,91,0.00,,,0.02,0,weatherlink.com 1.10,2013-01-07 03:35:00,
2013-01-06 22:50:00,50.7,48.0,30.16,NW,308,5.0,7.0,91,0.00,,,0.02,0,weatherlink.com 1.10,2013-01-07 03:50:00,
2013-01-06 23:05:00,50.6,48.0,30.16,NW,307,5.0,8.0,90,0.00,,,0.02,0,weatherlink.com 1.10,2013-01-07 04:05:00,
2013-01-06 23:20:00,50.7,48.0,30.16,NW,316,4.0,6.0,90,0.00,,,0.02,0,weatherlink.com 1.10,2013-01-07 04:20:00,
2013-01-06 23:35:00,50.7,48.0,30.17,NW,316,4.0,7.0,89,0.00,,,0.02,0,weatherlink.com 1.10,2013-01-07 04:35:00,
2013-01-06 23:50:00,50.5,47.0,30.17,NW,309,5.0,7.0,89,0.00,,,0.02,0,weatherlink.com 1.10,2013-01-07 04:50:00,